Tracking 20623 objects as of 2-Apr-2020
HD Live streaming from Space Station
objects crossing your sky now

EKRAN 6

Track EKRAN 6 now!
EKRAN 6 is classified as:


NORAD ID: 12120
Int'l Code: 1980-104A
Perigee: 35,741.6 km
Apogee: 35,823.0 km
Inclination: 11.4 °
Period: 1,435.5 minutes
Semi major axis: 42153 km
RCS: 6.3095 m2 (large)
Launch date: December 26, 1980
Source: Commonwealth of Independent States (former USSR) (CIS)
Launch site: TYURATAM MISSILE AND SPACE COMPLEX (TTMTR)
aabbcc
Your satellite tracking list
Your tracking list is empty




NASA's NSSDC Master Catalog

Two Line Element Set (TLE):
1 12120U 80104A   20092.68691345 +.00000021 +00000-0 +00000-0 0  9997
2 12120 011.4228 314.6592 0009659 026.1398 157.4700 01.00312666104671
Source of the keplerian elements: AFSPC